{"data":{"norad_id":66860,"intl_designator":"2025-281N","name":"STARLINK-35987","alt_names":[],"object_type":"PAYLOAD","status":"ACTIVE","operator":null,"country":"US","launch_date":"2025-12-02","launch_site_code":"AFETR","launch_vehicle":null,"mission":null,"orbit_class":"UNKNOWN","rcs_meters":null,"size_class":null,"mass_kg":null,"dimensions":null,"purposes":["comms"],"wikipedia_slug":null,"has_3d_model":false,"image_url":null,"decayed_at":null,"tle_current":{"epoch":"2026-05-25T00:51:13.316256Z","epoch_age_seconds":75485,"freshness":"FRESH","line1":"1 66860U 25281N   26145.03557079 -.00001146  00000+0 -32142-4 0  9997","line2":"2 66860  43.0011 272.1371 0001214 334.8583  25.2210 15.27553242 27863","mean_motion":15.27553242,"eccentricity":0.0001214,"inclination_deg":43.0011,"raan_deg":272.1371,"arg_perigee_deg":334.8583,"mean_anomaly_deg":25.221,"bstar":-3.2142e-5,"rev_number":2786,"period_min":94.268399975024,"perigee_km":482.29626256824,"apogee_km":483.96217800652,"semimajor_km":6861.2662202874,"source":"CELESTRAK","updated_at":"2026-05-25T13:38:21.342617Z"}}}